NOAA 16 DEB, 42387

Orbit data source: Space-Track

NOAA 16 DEB, 42387 is space debris in SSO originally from a launch on Thu, 21 Sep 2000 UTC launched from the Air Force Western Test Range (AFWTR). Debris objects in space refer to the collection of defunct objects orbiting the Earth. Examples of debris include non-operational satellites, rocket bodies, and fragments generated from explosions, collisions, or faulty payload assembly.

Loading next visibility...
Identifier
42387, 2000-055SF
Orbit
SSO
Country
Flag of USUS
Related business
Manufacturer
Unknown
Mission
Spacecraft
Bus & Motor
Unknown
Mass
Unknown
Launch date (UTC)
2000-09-21 (25 years ago)
Launch vehicle
Unknown
Launch site
Air Force Western Test Range (AFWTR)
Object type
Payload
Rocket body
Debris
Shape & HBR
Unknown shape, 0.1 m
Radar Cross Section
Small (<0.1 m²)

Expand to show TLE details & history
Last TLE update: 14 hours ago

TLE from 14 hours ago
0 NOAA 16 DEB
1 42387U 00055SF  25353.13052969  .00006035  00000-0  18802-2 0  9992
2 42387  98.8295 112.3549 0011512  58.0606 302.1700 14.41235652509692
Epoch: 2025-12-19T03:07Z
TLE epoch observation values (Epoch: 2025-12-19T03:07:57.765Z)
Latitude
0.00002°
Longitude
-22.61189°
Altitude
752.992 km
Speed
7.48 km/s
True Right ascension
07h 29m 25s
True Declination
0° 00' 00"
Sunlit
Object was in full shadow at epoch
Visualization orbit readout
Latitude
Unknown
Longitude
Unknown
Altitude
Unknown
Speed
Unknown
Apparent Right ascension
Unknown
Apparent Declination
Unknown
Sunlit
N/A
Visualization observer readout
Local Sidereal Time
16:18:46
Azimuth
Unknown
Elevation
Unknown
Doppler factor
Unknown
Orbital elements
Apogee altitude
759.763 km
Perigee altitude
743.347 km
Semi-major axis
7,129.692 km
Eccentricity
0.00115
Inclination
98.8295°
RAAN
112.3549°
Arg. of periapsis
58.0606°
True anomaly
302.05825°
Mean anomaly
302.17°
Eccentric anomaly
302.11413°
Mean motion
3.60526 °/min
Orbital period
99.85 mins
BSTAR
0.0018802
Loading maneuver chart data...
Computing Atmospheric mass density...
Loading historical data...
Loading historical data...
Loading historical data...
Loading historical data...
Loading historical data...
Loading historical data...
Loading historical data...

Documentation

Showing up to 5 results
|